Regional Weather Roundup
Issued by NWS

Home | Current Version | Previous Version | Text Only | Print | Product List | Glossary Off
Versions: 1 2 3 4 5 6 7 8 9 10 11 12 13 14 15 16 17 18 19 20 21 22 23 24 25 26 27 28 29 30 31 32 33 34 35 36 37 38 39 40 41 42 43 44 45 46 47 48 49 50

894
ASUS43 KFSD 200302
RWRSD

WEATHER ROUNDUP FOR SOUTH DAKOTA
NATIONAL WEATHER SERVICE SIOUX FALLS SD
1000 PM CDT SAT AUG 19 2017

NOTE: "FAIR" INDICATES FEW OR NO CLOUDS BELOW 12,000 FEET WITH NO
SIGNIFICANT WEATHER AND/OR OBSTRUCTIONS TO VISIBILITY.


SDZ001>005-009-010-012>017-200400-
NORTHWEST AND NORTH CENTRAL SOUTH DAKOTA

CITY           SKY/WX    TMP DP  RH WIND       PRES   REMARKS
BUFFALO          N/A     73  42  32 N12       29.88R
FAITH            N/A     69  45  41 N10       29.88R
MOBRIDGE       CLEAR     66  60  81 N3        29.79R
$$

SDZ012>016-024>037-041>051-057-063-072>074-200400-
SOUTHWEST AND SOUTH CENTRAL SOUTH DAKOTA

CITY           SKY/WX    TMP DP  RH WIND       PRES   REMARKS
RAPID CTY ARPT CLEAR     73  41  31 N9        29.92R
PIERRE         CLEAR     76  66  71 SE9       29.78R
CUSTER         CLOUDY    69  35  28 E13       30.07R
ELLSWORTH AFB  CLEAR     76  39  26 N8        29.92R
PHILIP         CLEAR     80  48  32 N14       29.81R
PINE RIDGE     CLEAR     69  55  60 NE6       29.88R
SPEARFISH      FAIR      66  45  45 S7        29.99R
WINNER         FAIR      76  71  85 E9        29.80R
$$

SDZ004>011-016>023-039-040-200400-
NORTHEAST SOUTH DAKOTA

CITY           SKY/WX    TMP DP  RH WIND       PRES   REMARKS
ABERDEEN       CLEAR     69  64  84 S10       29.80R
WATERTOWN      CLEAR     69  65  86 S14       29.83R
BROOKINGS      CLEAR     70  64  81 S9        29.88R
SISSETON         N/A     67  64  90 SE3       29.81R
$$

SDZ017-020-022-023-036>040-048>070-200400-
SOUTHEAST SOUTH DAKOTA

CITY           SKY/WX    TMP DP  RH WIND       PRES   REMARKS
SIOUX FALLS    CLOUDY    74  66  76 SE9       29.86S
HURON          CLEAR     73  64  73 S13G22    29.81R
CHAMBERLAIN    CLEAR     75  71  86 E8        29.80S
MITCHELL       CLOUDY    73  65  75 SE8       29.81F
$$

ABBREVIATIONS USED IN REMARKS
   TC - TEMPERATURE IN CELSIUS
  WCI - WIND CHILL INDEX
   HX - HEAT INDEX
  VSB - VISIBILITY





USA.gov is the U.S. government's official web portal to all federal, state and local government web resources and services.